| time (UTC) | temp F | wind direction | speed MPH | gust MPH | rain 1hr in | rain 24hr in | rain mn in | humidity % | barometer mb |
| 20260510201520 | 56 | 57 | 5.0 | 12.0 | 0.00 | 0.00 | 0.00 | 54 | 991.0 |
| 20260510200620 | 56 | 68 | 5.0 | 11.0 | 0.00 | 0.00 | 0.00 | 53 | 990.9 |
| 20260510195720 | 56 | 61 | 4.0 | 10.0 | 0.00 | 0.00 | 0.00 | 54 | 991.0 |
| 20260510194820 | 55 | 67 | 4.0 | 10.0 | 0.00 | 0.00 | 0.00 | 55 | 991.0 |
| 20260510192120 | 54 | 59 | 6.0 | 14.0 | 0.00 | 0.00 | 0.00 | 57 | 991.0 |
| 20260510191220 | 53 | 67 | 6.0 | 14.0 | 0.00 | 0.00 | 0.00 | 58 | 991.0 |
| 20260510190320 | 53 | 56 | 4.0 | 10.0 | 0.00 | 0.00 | 0.00 | 59 | 991.0 |
| 20260510185420 | 52 | 58 | 6.0 | 15.0 | 0.00 | 0.00 | 0.00 | 59 | 991.0 |
| 20260510184520 | 52 | 66 | 6.0 | 14.0 | 0.00 | 0.00 | 0.00 | 60 | 991.1 |
| 20260510183620 | 51 | 58 | 4.0 | 13.0 | 0.00 | 0.00 | 0.00 | 62 | 991.0 |
| 20260510182720 | 51 | 63 | 4.0 | 13.0 | 0.00 | 0.00 | 0.00 | 61 | 991.1 |
| 20260510181820 | 51 | 63 | 5.0 | 12.0 | 0.00 | 0.00 | 0.00 | 62 | 991.1 |
| 20260510180020 | 50 | 61 | 6.0 | 14.0 | 0.00 | 0.00 | 0.00 | 64 | 991.2 |
| 20260510175120 | 50 | 58 | 6.0 | 16.0 | 0.00 | 0.00 | 0.00 | 64 | 991.2 |
| 20260510174220 | 50 | 67 | 7.0 | 17.0 | 0.00 | 0.00 | 0.00 | 65 | 991.2 |
| 20260510173320 | 49 | 78 | 5.0 | 16.0 | 0.00 | 0.00 | 0.00 | 65 | 991.3 |
| 20260510172420 | 49 | 74 | 4.0 | 14.0 | 0.00 | 0.00 | 0.00 | 65 | 991.3 |
| 20260510171520 | 49 | 65 | 6.0 | 13.0 | 0.00 | 0.00 | 0.00 | 67 | 991.4 |
| 20260510170620 | 48 | 66 | 5.0 | 15.0 | 0.00 | 0.00 | 0.00 | 68 | 991.3 |
| 20260510165720 | 47 | 56 | 4.0 | 14.0 | 0.00 | 0.00 | 0.00 | 69 | 991.3 |
| 20260510164820 | 47 | 59 | 6.0 | 14.0 | 0.00 | 0.00 | 0.00 | 70 | 991.2 |
| 20260510162120 | 45 | 45 | 3.0 | 11.0 | 0.00 | 0.00 | 0.00 | 73 | 991.0 |
| 20260510160320 | 45 | 60 | 5.0 | 12.0 | 0.00 | 0.00 | 0.00 | 74 | 991.1 |
| 20260510155420 | 44 | 54 | 4.0 | 13.0 | 0.00 | 0.00 | 0.00 | 75 | 991.0 |
| 20260510154520 | 44 | 53 | 3.0 | 12.0 | 0.00 | 0.00 | 0.00 | 76 | 991.0 |
| 20260510153620 | 44 | 50 | 4.0 | 9.0 | 0.00 | 0.00 | 0.00 | 76 | 991.0 |
| 20260510151820 | 43 | 46 | 3.0 | 9.0 | 0.00 | 0.00 | 0.00 | 77 | 991.0 |
| 20260510150921 | 43 | 56 | 2.0 | 7.0 | 0.00 | 0.00 | 0.00 | 77 | 990.9 |
| 20260510144221 | 42 | 58 | 4.0 | 12.0 | 0.00 | 0.00 | 0.00 | 78 | 990.9 |
| 20260510143320 | 42 | 61 | 4.0 | 13.0 | 0.00 | 0.00 | 0.00 | 78 | 990.9 |
| 20260510140620 | 42 | 55 | 3.0 | 9.0 | 0.00 | 0.00 | 0.00 | 79 | 991.0 |
| 20260510135720 | 42 | 55 | 2.0 | 6.0 | 0.00 | 0.00 | 0.00 | 79 | 991.0 |
| 20260510134821 | 42 | 48 | 3.0 | 9.0 | 0.00 | 0.01 | 0.00 | 79 | 990.8 |
| 20260510133020 | 42 | 51 | 3.0 | 10.0 | 0.00 | 0.01 | 0.00 | 79 | 991.0 |
| 20260510131220 | 41 | 55 | 2.0 | 7.0 | 0.00 | 0.02 | 0.00 | 79 | 990.9 |
| 20260510130321 | 41 | 47 | 2.0 | 7.0 | 0.00 | 0.02 | 0.00 | 79 | 991.0 |
| 20260510125420 | 42 | 50 | 2.0 | 6.0 | 0.00 | 0.02 | 0.00 | 79 | 991.0 |
| 20260510124520 | 42 | 46 | 2.0 | 9.0 | 0.00 | 0.03 | 0.00 | 79 | 991.0 |
| 20260510120920 | 42 | 50 | 2.0 | 9.0 | 0.00 | 0.03 | 0.00 | 78 | 991.0 |
| 20260510120020 | 42 | 51 | 2.0 | 6.0 | 0.00 | 0.04 | 0.00 | 78 | 990.9 |
| 20260510115120 | 42 | 53 | 2.0 | 8.0 | 0.00 | 0.05 | 0.00 | 78 | 990.9 |
| 20260510114220 | 42 | 51 | 3.0 | 9.0 | 0.00 | 0.05 | 0.00 | 78 | 991.0 |
| 20260510113320 | 42 | 52 | 2.0 | 10.0 | 0.00 | 0.05 | 0.00 | 78 | 990.9 |
| 20260510112420 | 42 | 45 | 2.0 | 8.0 | 0.00 | 0.05 | 0.00 | 78 | 991.0 |
| 20260510110621 | 43 | 49 | 2.0 | 7.0 | 0.00 | 0.07 | 0.00 | 77 | 991.0 |
| 20260510105720 | 43 | 49 | 3.0 | 9.0 | 0.00 | 0.07 | 0.00 | 78 | 991.0 |
| 20260510104821 | 43 | 54 | 4.0 | 10.0 | 0.00 | 0.08 | 0.00 | 77 | 990.9 |
| 20260510103020 | 42 | 47 | 3.0 | 11.0 | 0.00 | 0.09 | 0.00 | 77 | 990.8 |
| 20260510102120 | 42 | 50 | 3.0 | 11.0 | 0.00 | 0.09 | 0.00 | 77 | 990.8 |
| 20260510095420 | 43 | 34 | 3.0 | 11.0 | 0.00 | 0.09 | 0.00 | 77 | 990.9 |
| 20260510094521 | 43 | 42 | 3.0 | 10.0 | 0.00 | 0.09 | 0.00 | 77 | 990.8 |
| 20260510093621 | 43 | 48 | 4.0 | 9.0 | 0.00 | 0.09 | 0.00 | 77 | 990.7 |
| 20260510092720 | 43 | 48 | 4.0 | 10.0 | 0.00 | 0.09 | 0.00 | 76 | 990.7 |
| 20260510091821 | 43 | 48 | 3.0 | 11.0 | 0.00 | 0.09 | 0.00 | 76 | 990.7 |
| 20260510090921 | 43 | 45 | 3.0 | 11.0 | 0.00 | 0.09 | 0.00 | 76 | 990.6 |
| 20260510090021 | 43 | 51 | 3.0 | 9.0 | 0.00 | 0.09 | 0.00 | 75 | 990.7 |
| 20260510085120 | 44 | 41 | 3.0 | 9.0 | 0.00 | 0.09 | 0.00 | 75 | 990.6 |
| 20260510084221 | 44 | 44 | 3.0 | 11.0 | 0.00 | 0.09 | 0.00 | 74 | 990.5 |
| 20260510083320 | 44 | 48 | 3.0 | 8.0 | 0.00 | 0.09 | 0.00 | 74 | 990.4 |
| 20260510082421 | 44 | 45 | 3.0 | 13.0 | 0.00 | 0.09 | 0.00 | 73 | 990.3 |
| 20260510081521 | 45 | 39 | 4.0 | 14.0 | 0.00 | 0.09 | 0.00 | 73 | 990.3 |
| 20260510080620 | 45 | 45 | 4.0 | 14.0 | 0.00 | 0.09 | 0.00 | 73 | 990.3 |
| 20260510074821 | 45 | 46 | 2.0 | 7.0 | 0.00 | 0.09 | 0.09 | 71 | 990.2 |
| 20260510073921 | 46 | 33 | 3.0 | 6.0 | 0.00 | 0.09 | 0.09 | 70 | 990.2 |
| 20260510073021 | 46 | 44 | 3.0 | 9.0 | 0.00 | 0.09 | 0.09 | 70 | 990.1 |
| 20260510072121 | 46 | 39 | 3.0 | 9.0 | 0.00 | 0.09 | 0.09 | 69 | 990.1 |
| 20260510065421 | 48 | 43 | 4.0 | 10.0 | 0.00 | 0.09 | 0.09 | 67 | 989.9 |
| 20260510063621 | 48 | 49 | 4.0 | 12.0 | 0.00 | 0.09 | 0.09 | 66 | 989.7 |
| 20260510062721 | 49 | 49 | 3.0 | 8.0 | 0.00 | 0.09 | 0.09 | 66 | 989.7 |
| 20260510061821 | 49 | 47 | 4.0 | 10.0 | 0.00 | 0.09 | 0.09 | 65 | 989.6 |
| 20260510060921 | 50 | 43 | 3.0 | 9.0 | 0.00 | 0.09 | 0.09 | 64 | 989.6 |
| 20260510060021 | 50 | 39 | 3.0 | 9.0 | 0.00 | 0.09 | 0.09 | 64 | 989.6 |
| 20260510054221 | 51 | 45 | 4.0 | 11.0 | 0.00 | 0.09 | 0.09 | 63 | 989.5 |
| 20260510053321 | 51 | 39 | 4.0 | 12.0 | 0.00 | 0.09 | 0.09 | 62 | 989.4 |
| 20260510051521 | 52 | 46 | 3.0 | 11.0 | 0.00 | 0.09 | 0.09 | 62 | 989.4 |
| 20260510050621 | 52 | 52 | 3.0 | 6.0 | 0.00 | 0.09 | 0.09 | 61 | 989.2 |
| 20260510045721 | 52 | 51 | 3.0 | 7.0 | 0.00 | 0.09 | 0.09 | 61 | 989.2 |
| 20260510044821 | 53 | 48 | 3.0 | 8.0 | 0.00 | 0.09 | 0.09 | 60 | 989.3 |
| 20260510043921 | 53 | 49 | 4.0 | 10.0 | 0.00 | 0.09 | 0.09 | 59 | 989.2 |
| 20260510042121 | 54 | 59 | 5.0 | 11.0 | 0.00 | 0.09 | 0.09 | 58 | 989.2 |
| 20260510041221 | 55 | 50 | 5.0 | 14.0 | 0.00 | 0.09 | 0.09 | 57 | 989.2 |
| 20260510035421 | 56 | 63 | 5.0 | 12.0 | 0.00 | 0.09 | 0.09 | 56 | 989.3 |
| 20260510034521 | 56 | 62 | 6.0 | 17.0 | 0.00 | 0.09 | 0.09 | 55 | 989.2 |
| 20260510033621 | 56 | 60 | 5.0 | 14.0 | 0.00 | 0.09 | 0.09 | 54 | 989.2 |
| 20260510032721 | 57 | 53 | 4.0 | 14.0 | 0.00 | 0.09 | 0.09 | 54 | 989.2 |
| 20260510031821 | 57 | 44 | 3.0 | 11.0 | 0.00 | 0.09 | 0.09 | 53 | 989.2 |
| 20260510030921 | 58 | 56 | 3.0 | 10.0 | 0.00 | 0.09 | 0.09 | 53 | 989.2 |
| 20260510025121 | 58 | 57 | 2.0 | 7.0 | 0.00 | 0.09 | 0.09 | 51 | 989.1 |
| 20260510024221 | 59 | 89 | 2.0 | 7.0 | 0.00 | 0.09 | 0.09 | 51 | 989.1 |
| 20260510023321 | 59 | 71 | 2.0 | 7.0 | 0.00 | 0.09 | 0.09 | 51 | 989.1 |
| 20260510022421 | 59 | 42 | 3.0 | 7.0 | 0.00 | 0.09 | 0.09 | 51 | 989.0 |
| 20260510020621 | 60 | 44 | 3.0 | 12.0 | 0.00 | 0.10 | 0.09 | 51 | 989.0 |
| 20260510015721 | 60 | 72 | 2.0 | 9.0 | 0.00 | 0.10 | 0.09 | 50 | 989.1 |
| 20260510014821 | 59 | 115 | 1.0 | 7.0 | 0.00 | 0.10 | 0.09 | 50 | 989.1 |
| 20260510013921 | 59 | 0 | 0.0 | 6.0 | 0.00 | 0.10 | 0.09 | 49 | 989.2 |
| 20260510013021 | 59 | 62 | 1.0 | 5.0 | 0.00 | 0.10 | 0.09 | 49 | 989.3 |
| 20260510012121 | 59 | 83 | 1.0 | 5.0 | 0.00 | 0.10 | 0.09 | 50 | 989.4 |
| 20260510010321 | 59 | 89 | 1.0 | 7.0 | 0.00 | 0.10 | 0.09 | 49 | 989.5 |
| 20260510005421 | 59 | 0 | 0.0 | 7.0 | 0.00 | 0.10 | 0.09 | 50 | 989.6 |
| 20260510004521 | 59 | 103 | 1.0 | 6.0 | 0.00 | 0.10 | 0.09 | 50 | 989.8 |
| 20260510003621 | 58 | 178 | 1.0 | 4.0 | 0.00 | 0.10 | 0.09 | 51 | 989.7 |
| 20260510002721 | 58 | 79 | 1.0 | 6.0 | 0.00 | 0.10 | 0.09 | 53 | 989.8 |
| 20260510001821 | 58 | 0 | 0.0 | 8.0 | 0.00 | 0.10 | 0.09 | 55 | 990.0 |
| 20260510000921 | 58 | 247 | 2.0 | 8.0 | 0.00 | 0.10 | 0.09 | 55 | 990.1 |
| 20260509235121 | 58 | 166 | 2.0 | 7.0 | 0.00 | 0.10 | 0.09 | 56 | 990.2 |
| 20260509234221 | 57 | 195 | 1.0 | 8.0 | 0.00 | 0.10 | 0.09 | 57 | 990.1 |
| 20260509233321 | 58 | 176 | 2.0 | 7.0 | 0.00 | 0.10 | 0.09 | 57 | 990.1 |
| 20260509232421 | 58 | 92 | 2.0 | 7.0 | 0.00 | 0.10 | 0.09 | 56 | 990.1 |
| 20260509230621 | 57 | 31 | 1.0 | 5.0 | 0.00 | 0.10 | 0.09 | 57 | 990.0 |
| 20260509225721 | 57 | 29 | 1.0 | 5.0 | 0.00 | 0.10 | 0.09 | 57 | 990.1 |
| 20260509224821 | 56 | 53 | 3.0 | 9.0 | 0.00 | 0.10 | 0.09 | 58 | 990.1 |
| 20260509223921 | 56 | 51 | 1.0 | 7.0 | 0.00 | 0.10 | 0.09 | 61 | 990.1 |
| 20260509223021 | 56 | 66 | 2.0 | 6.0 | 0.00 | 0.10 | 0.09 | 57 | 990.1 |
| 20260509222121 | 55 | 65 | 3.0 | 6.0 | 0.00 | 0.10 | 0.09 | 59 | 990.1 |
| 20260509221221 | 55 | 50 | 2.0 | 7.0 | 0.00 | 0.10 | 0.09 | 60 | 990.2 |
| 20260509220321 | 55 | 61 | 3.0 | 7.0 | 0.00 | 0.10 | 0.09 | 60 | 990.2 |
| 20260509211821 | 53 | 0 | 0.0 | 5.0 | 0.00 | 0.10 | 0.09 | 64 | 990.5 |
| 20260509210921 | 53 | 60 | 1.0 | 5.0 | 0.00 | 0.10 | 0.09 | 66 | 990.6 |
| 20260509210021 | 52 | 0 | 0.0 | 3.0 | 0.00 | 0.10 | 0.09 | 69 | 990.7 |
| 20260509205121 | 52 | 0 | 0.0 | 6.0 | 0.00 | 0.10 | 0.09 | 70 | 990.8 |
| 20260509204221 | 52 | 0 | 0.0 | 6.0 | 0.00 | 0.10 | 0.09 | 70 | 990.8 |
| 20260509202421 | 51 | 0 | 0.0 | 4.0 | 0.00 | 0.10 | 0.09 | 73 | 990.9 |